[[{"header":{"parameterUnit":"m.s-1","parameterCategory":1,"la1":30.2991,"la2":30.254,"lo1":-89.0895,"lo2":-89.0444,"dy":0.0017,"dx":0.0017,"nx":28,"ny":28,"refTime":"2025-01-25T09:00:00:Z","depth":0,"parameterNumber":2,"parameterNumberName":"U-component_of_WINDS"},"data":[0,0,0,0,0,0,0,0,0,0,0,0,0,0,0,0,0,0,0,0,0,0,0,0,0,0,0,0,0,0,0,0,0,0,0,0,0,0,0,0,0,0,0,0,0,0,0,0,0,0,0,0,0,0,0,0,0,0,-3.8584,-3.8584,0,-3.8587,-3.8587,-3.8587,-3.8447,-3.8443,-3.8439,-3.8436,-3.8441,-3.8445,-3.8448,0,0,0,0,0,0,0,0,0,0,0,0,0,-3.8457,-3.846,-3.8584,-3.8584,-3.8584,-3.8587,-3.8587,-3.8587,-3.8447,-3.8443,-3.8438,-3.8434,-3.844,-3.8444,-3.8449,0,0,0,0,0,0,0,0,0,0,0,0,0,-3.8492,-3.8461,-3.8584,-3.8514,-3.8508,-3.8587,-3.8587,-3.8587,-3.8448,-3.8443,-3.8437,-3.8432,-3.8439,-3.8444,-3.8449,-3.8595,0,0,-3.8466,-3.8468,0,0,0,0,0,0,0,0,-3.849,-3.8496,-3.8524,-3.8519,-3.8512,-3.8511,-3.8544,-3.859,-3.845,-3.8471,-3.8436,-3.8429,-3.8469,-3.8472,-3.8485,-3.8595,-3.8596,-3.8466,-3.847,-3.8472,-3.8474,0,0,0,0,0,0,0,-3.8488,-3.8495,-3.8585,-3.8525,-3.8518,-3.8483,-3.8482,-3.8552,-3.8502,-3.8469,-3.8459,-3.8461,-3.8465,-3.848,-3.8484,-3.8596,-3.8466,-3.8471,-3.8475,-3.8477,-3.8826,-3.8832,0,0,0,0,0,0,-3.8494,-3.8494,-3.8585,-3.8585,-3.8487,-3.849,-3.8489,-3.8517,-3.85,-3.8492,-3.8466,-3.8454,-3.8473,-3.8478,-3.8483,-3.8653,-3.8472,-3.8477,-3.848,-3.882,-3.8827,-3.8834,0,0,0,0,0,0,-3.8492,-3.8504,-3.8585,-3.8537,-3.8545,-3.8498,-3.8531,-3.852,-3.8535,-3.8498,-3.8488,-3.8491,-3.8469,-3.8476,-3.8568,-3.8651,-3.848,-3.8485,-3.8813,-3.8822,-3.8831,-3.8994,0,0,0,0,0,0,-3.8489,-3.8504,-3.8559,-3.8539,-3.8548,-3.867,-3.8536,-3.8524,-3.8544,-3.853,-3.8519,-3.8511,-3.8465,-3.8561,-3.8574,-3.8656,-3.8489,-3.8805,-3.8817,-3.8828,-3.8981,-3.9008,-3.903,0,0,0,0,0,-3.8485,-3.8605,-3.8562,-3.8574,-3.8615,-3.8675,-3.868,-3.8623,-3.8552,-3.8607,-3.8583,-3.8512,-3.864,-3.8572,-3.8585,-3.867,-3.88,-3.8814,-3.8827,-3.897,-3.9003,-3.903,0,0,0,0,0,0,-3.8636,-3.8601,-3.8553,-3.867,-3.8677,-3.8651,-3.8719,-3.8659,-3.8687,-3.8672,-3.8601,-3.86,-3.8704,-3.8695,-3.862,-3.881,-3.8707,-3.8724,-3.8812,-3.8842,-3.8866,-3.8867,-3.8493,0,0,0,0,0,-3.8683,-3.8734,-3.8701,-3.8807,-3.8813,-3.8766,-3.8789,-3.8745,-3.8749,-3.8751,-3.8734,-3.8741,-3.8782,-3.8812,-3.8848,-3.8979,-3.8975,-3.9044,-3.9068,-3.9089,-3.9105,-3.9173,-3.9204,-3.8878,-3.8878,-3.8878,0,0,-3.8781,-3.8768,-3.8805,-3.8837,-3.8837,-3.8892,-3.8769,-3.8832,-3.8872,-3.8761,-3.8847,-3.8835,-3.8838,-3.8951,-3.8999,-3.8947,-3.9193,-3.9106,-3.9123,-3.9127,-3.919,-3.9221,-3.9249,-3.8887,-3.8886,-3.8884,0,0,-3.8987,-3.8982,-3.907,-3.9072,-3.9073,-3.904,-3.9062,-3.9045,-3.9032,-3.9118,-3.9035,-3.9082,-3.9155,-3.9161,-3.9173,-3.9381,-3.9317,-3.9394,-3.9523,-3.9591,-3.9617,-3.9639,-3.9714,-3.9741,-3.941,-3.941,-3.9411,0,-3.9108,-3.9187,-3.9123,-3.9192,-3.9209,-3.911,-3.9199,-3.9204,-3.9217,-3.9231,-3.9172,-3.9262,-3.9257,-3.9369,-3.942,-3.9433,-3.9455,-3.9396,-3.9618,-3.964,-3.966,-3.973,-3.9759,-3.942,-3.9419,-3.9418,-3.9417,0,-3.9337,-3.9393,-3.9464,-3.9478,-3.9503,-3.9582,-3.953,-3.9563,-3.9517,-3.9491,-3.9579,-3.9569,-3.9602,-3.9625,-3.958,-3.9731,-3.9699,-3.963,-3.9526,-3.9702,-3.9767,-3.9793,-3.9433,-3.943,-3.9427,-3.9425,0,0,-3.9639,-3.9616,-3.9644,-3.9649,-3.9642,-3.9684,-3.9758,-3.9789,-3.9819,-3.9831,-3.9892,-3.9956,-3.9892,-3.9907,-3.9862,-3.9921,-4.0087,-3.9845,-3.9844,-3.9891,-4.0253,-4.0305,-4.0338,-4.0044,-4.0048,-4.0052,-4.0253,0,-3.984,-3.9965,-3.9909,-4.004,-4.0091,-3.9997,-4.0062,-4.0065,-4.0042,-4.0083,-4.0057,-4.0104,-4.0016,-4.0024,-4.0079,-4.0055,-4.0159,-4.004,-4.01,-4.0103,-4.0104,-4.0371,-4.0427,-4.0617,-4.0278,-4.0282,-4.0285,0,-4.009,-4.0112,-4.0248,-4.0232,-4.0251,-4.031,-4.0334,-4.0373,-4.0375,-4.0354,-4.037,-4.0312,-4.0383,-4.0279,-4.0377,-4.0297,-4.0319,-4.0311,-4.0317,-4.0321,-4.0206,-4.0384,-4.0676,-4.0705,-4.0324,-4.0321,-4.0318,0,-4.0298,-4.0362,-4.0451,-4.0458,-4.0441,-4.0485,-4.048,-4.0476,-4.0498,-4.0519,-4.0533,-4.0562,-4.0579,-4.0603,-4.0554,-4.0482,-4.0659,-4.0551,-4.0645,-4.0647,-4.0687,-4.0686,-4.0988,-4.07,-4.07,-4.0699,-4.0699,0,-4.0528,-4.0616,-4.0544,-4.06,-4.0695,-4.0629,-4.0725,-4.071,-4.0707,-4.0758,-4.0678,-4.0728,-4.066,-4.0703,-4.0665,-4.0752,-4.076,-4.0746,-4.0735,-4.0754,-4.0756,-4.0767,-4.0753,-4.0707,-4.0705,-4.0703,-4.0702,0,-4.0777,-4.0733,-4.0825,-4.08,-4.0796,-4.0868,-4.0847,-4.0897,-4.0869,-4.0934,-4.0946,-4.0902,-4.0948,-4.0901,-4.0945,-4.0919,-4.1037,-4.1006,-4.1037,-4.1028,-4.1125,-4.1117,-4.1446,-4.1486,-4.1173,-4.1176,-4.1178,0,-4.0928,-4.0992,-4.0975,-4.1003,-4.1003,-4.1049,-4.1071,-4.1009,-4.1036,-4.1042,-4.1092,-4.1131,-4.116,-4.1238,-4.1211,-4.1243,-4.1213,-4.1327,-4.1218,-4.1235,-4.1216,-4.1213,-4.1219,-4.1349,-4.1353,-4.1356,-4.1358,0,-4.1199,-4.1174,-4.1208,-4.1236,-4.1264,-4.1283,-4.1295,-4.1323,-4.1259,-4.1293,-4.1339,-4.1361,-4.1405,-4.1445,-4.147,-4.1464,-4.1402,-4.1393,-4.1416,-4.1436,-4.1452,-4.1445,-4.1098,-4.1386,-4.1383,-4.1381,-4.1379,-4.1378,-4.1404,-4.1457,-4.1453,-4.1494,-4.1497,-4.151,-4.1556,-4.1533,-4.157,-4.1601,-4.1562,-4.162,-4.1619,-4.1645,-4.1647,-4.1691,-4.1643,-4.1678,-4.1686,-4.1696,-4.1711,-4.1444,-4.1695,-4.1694,-4.1694,-4.1693,-4.1692,0,-4.1672,-4.1664,-4.1703,-4.1722,-4.1755,-4.1691,-4.1702,-4.1733,-4.1784,-4.1789,-4.1818,-4.1871,-4.191,-4.1885,-4.1918,-4.1958,-4.193,-4.1969,-4.1966,-4.1966,-4.1751,-4.1728,-4.1991,-4.1991,-4.1991,-4.1991,-4.1991,-4.1991,-4.1815,-4.1902,-4.1876,-4.1963,-4.1955,-4.201,-4.2021,-4.2033,-4.2036,-4.2099,-4.213,-4.2113,-4.2106,-4.2138,-4.217,-4.2162,-4.2178,-4.2228,-4.2209,-4.201,-4.1981,-4.1953,-4.193,-4.2232,-4.2232,-4.242,-4.2422,-4.2423]},{"header":{"parameterUnit":"m.s-1","parameterCategory":1,"la1":30.2991,"la2":30.254,"lo1":-89.0895,"lo2":-89.0444,"dy":0.0017,"dx":0.0017,"nx":28,"ny":28,"refTime":"2025-01-25T09:00:00:Z","depth":0,"parameterNumber":3,"parameterNumberName":"V-component_of_WINDS"},"data":[0,0,0,0,0,0,0,0,0,0,0,0,0,0,0,0,0,0,0,0,0,0,0,0,0,0,0,0,0,0,0,0,0,0,0,0,0,0,0,0,0,0,0,0,0,0,0,0,0,0,0,0,0,0,0,0,0,0,-1.3942,-1.3941,0,-1.3935,-1.3935,-1.3935,-1.3909,-1.3909,-1.3908,-1.3908,-1.3901,-1.3902,-1.3902,0,0,0,0,0,0,0,0,0,0,0,0,0,-1.3931,-1.3931,-1.3942,-1.3941,-1.3941,-1.3935,-1.3935,-1.3935,-1.3909,-1.3909,-1.3908,-1.3907,-1.3901,-1.3902,-1.3902,0,0,0,0,0,0,0,0,0,0,0,0,0,-1.3931,-1.3932,-1.3942,-1.3928,-1.3927,-1.3935,-1.3935,-1.3935,-1.391,-1.3909,-1.3908,-1.3907,-1.3901,-1.3902,-1.3902,-1.3924,0,0,-1.3904,-1.3904,0,0,0,0,0,0,0,0,-1.3931,-1.3932,-1.393,-1.3929,-1.3927,-1.3922,-1.3929,-1.3931,-1.391,-1.3916,-1.3908,-1.3906,-1.3909,-1.3909,-1.391,-1.3923,-1.3923,-1.3904,-1.3904,-1.3905,-1.3905,0,0,0,0,0,0,0,-1.3931,-1.3932,-1.3939,-1.393,-1.3928,-1.3922,-1.3921,-1.3929,-1.3918,-1.3915,-1.3914,-1.3913,-1.3908,-1.3909,-1.3909,-1.3923,-1.3904,-1.3905,-1.3905,-1.3905,-1.3952,-1.3952,0,0,0,0,0,0,-1.3933,-1.3932,-1.3939,-1.3939,-1.3927,-1.3923,-1.3922,-1.3925,-1.3917,-1.3915,-1.3914,-1.3912,-1.3909,-1.3909,-1.3909,-1.3932,-1.3905,-1.3905,-1.3906,-1.3951,-1.3952,-1.3953,0,0,0,0,0,0,-1.3933,-1.3934,-1.3939,-1.3935,-1.3935,-1.3924,-1.3927,-1.3925,-1.3926,-1.3916,-1.3914,-1.3917,-1.3908,-1.3908,-1.392,-1.3931,-1.3905,-1.3906,-1.395,-1.3951,-1.3952,-1.3979,0,0,0,0,0,0,-1.3933,-1.3934,-1.3943,-1.3935,-1.3935,-1.3951,-1.3928,-1.3926,-1.3927,-1.3924,-1.3919,-1.3917,-1.3907,-1.3919,-1.392,-1.3932,-1.3906,-1.3948,-1.395,-1.3952,-1.3977,-1.3981,-1.3985,0,0,0,0,0,-1.3933,-1.3951,-1.3943,-1.3944,-1.3945,-1.3951,-1.3951,-1.394,-1.3928,-1.3936,-1.3929,-1.3917,-1.393,-1.392,-1.3922,-1.3933,-1.3948,-1.395,-1.3952,-1.3975,-1.398,-1.3985,0,0,0,0,0,0,-1.3961,-1.395,-1.3941,-1.3958,-1.3955,-1.3947,-1.3957,-1.3946,-1.3947,-1.3945,-1.393,-1.3929,-1.3942,-1.3939,-1.3928,-1.3953,-1.3937,-1.3939,-1.3954,-1.3959,-1.3963,-1.3963,-1.3907,0,0,0,0,0,-1.3969,-1.3974,-1.3965,-1.398,-1.3979,-1.3968,-1.397,-1.3961,-1.3959,-1.3958,-1.3952,-1.395,-1.3953,-1.3956,-1.3959,-1.3976,-1.3974,-1.3985,-1.3989,-1.3992,-1.3994,-1.4001,-1.4006,-1.3959,-1.3959,-1.3959,0,0,-1.3985,-1.398,-1.3985,-1.3985,-1.3983,-1.3988,-1.3968,-1.3975,-1.3979,-1.3959,-1.3969,-1.3965,-1.3961,-1.3975,-1.3981,-1.3973,-1.4006,-1.3995,-1.3997,-1.3998,-1.4004,-1.4008,-1.4012,-1.3961,-1.396,-1.396,0,0,-1.4019,-1.4016,-1.4027,-1.4025,-1.4021,-1.4013,-1.4016,-1.4008,-1.4005,-1.4014,-1.3999,-1.4003,-1.401,-1.4008,-1.4007,-1.4038,-1.4026,-1.4039,-1.4059,-1.4066,-1.407,-1.4073,-1.4082,-1.4086,-1.4041,-1.4041,-1.4041,0,-1.404,-1.4048,-1.4035,-1.4042,-1.4043,-1.4024,-1.4035,-1.4034,-1.4031,-1.4031,-1.4022,-1.4028,-1.4025,-1.4037,-1.4045,-1.4046,-1.4047,-1.4039,-1.407,-1.4073,-1.4076,-1.4085,-1.4089,-1.4043,-1.4043,-1.4042,-1.4042,0,-1.4074,-1.4079,-1.4089,-1.4086,-1.4087,-1.4097,-1.4084,-1.4087,-1.4078,-1.4071,-1.408,-1.4075,-1.4076,-1.4078,-1.407,-1.4089,-1.4084,-1.4073,-1.4056,-1.4082,-1.409,-1.4094,-1.4045,-1.4044,-1.4044,-1.4044,0,0,-1.4125,-1.4113,-1.4117,-1.4114,-1.4108,-1.4112,-1.412,-1.412,-1.4122,-1.412,-1.4126,-1.4131,-1.412,-1.412,-1.4111,-1.4117,-1.414,-1.4105,-1.4105,-1.411,-1.4159,-1.4167,-1.4171,-1.4132,-1.4133,-1.4133,-1.4159,0,-1.4155,-1.4168,-1.4156,-1.4171,-1.4175,-1.4157,-1.4164,-1.416,-1.4154,-1.4156,-1.4149,-1.4152,-1.4138,-1.4137,-1.4143,-1.4136,-1.4149,-1.4134,-1.4136,-1.4137,-1.4137,-1.4176,-1.4184,-1.4209,-1.4162,-1.4163,-1.4163,0,-1.4193,-1.4192,-1.4207,-1.4198,-1.4199,-1.4205,-1.4203,-1.4206,-1.4201,-1.4196,-1.4195,-1.4183,-1.419,-1.4174,-1.4182,-1.4172,-1.4172,-1.4169,-1.4169,-1.4168,-1.4151,-1.4175,-1.4217,-1.422,-1.4168,-1.4168,-1.4167,0,-1.4227,-1.4229,-1.4238,-1.4237,-1.4227,-1.4231,-1.4227,-1.4221,-1.4222,-1.422,-1.422,-1.4219,-1.4219,-1.4218,-1.4207,-1.4196,-1.4216,-1.4199,-1.4211,-1.4211,-1.4215,-1.4215,-1.4257,-1.4217,-1.4217,-1.4217,-1.4217,0,-1.4261,-1.4271,-1.4253,-1.4259,-1.4269,-1.4254,-1.4264,-1.4258,-1.4253,-1.4257,-1.4241,-1.4245,-1.423,-1.4232,-1.4223,-1.423,-1.423,-1.4225,-1.4223,-1.4226,-1.4227,-1.4226,-1.4223,-1.4218,-1.4218,-1.4218,-1.4218,0,-1.4301,-1.4289,-1.4298,-1.4287,-1.4284,-1.4292,-1.4282,-1.4287,-1.4279,-1.4283,-1.4283,-1.4271,-1.4272,-1.426,-1.426,-1.4254,-1.4265,-1.426,-1.4266,-1.4264,-1.4276,-1.4274,-1.4317,-1.4322,-1.4281,-1.4281,-1.4281,0,-1.4323,-1.433,-1.432,-1.4321,-1.4317,-1.4319,-1.4319,-1.4305,-1.4305,-1.4299,-1.4304,-1.4303,-1.4302,-1.4305,-1.4296,-1.4295,-1.4289,-1.4304,-1.4289,-1.4291,-1.4288,-1.4287,-1.4287,-1.4307,-1.4308,-1.4308,-1.4308,0,-1.4364,-1.4357,-1.4358,-1.4355,-1.4355,-1.4353,-1.4349,-1.4351,-1.4335,-1.4336,-1.4337,-1.4336,-1.4335,-1.4334,-1.4331,-1.4327,-1.4315,-1.4313,-1.4316,-1.4319,-1.4322,-1.4319,-1.4274,-1.4312,-1.4312,-1.4312,-1.4311,-1.4311,-1.4395,-1.4399,-1.4392,-1.4392,-1.4388,-1.4385,-1.4388,-1.4379,-1.4379,-1.4377,-1.4368,-1.437,-1.4364,-1.4358,-1.4355,-1.4355,-1.4348,-1.4352,-1.4353,-1.4353,-1.4355,-1.4322,-1.4355,-1.4355,-1.4355,-1.4355,-1.4355,0,-1.4433,-1.4427,-1.4428,-1.4423,-1.4422,-1.4411,-1.4406,-1.4407,-1.4408,-1.4403,-1.4402,-1.4402,-1.4401,-1.4391,-1.4389,-1.4392,-1.4386,-1.4392,-1.4391,-1.439,-1.4362,-1.436,-1.4396,-1.4396,-1.4396,-1.4396,-1.4396,-1.4396,-1.4453,-1.446,-1.4452,-1.4456,-1.445,-1.4451,-1.4449,-1.4446,-1.4441,-1.4442,-1.4441,-1.4434,-1.4427,-1.4424,-1.4422,-1.4419,-1.4419,-1.4426,-1.4421,-1.4396,-1.4392,-1.4388,-1.4385,-1.4426,-1.4426,-1.4448,-1.4448,-1.4448]}]]